Temp
95 93 86 87 90 89 86 82 79 81 84 83 81 79 81 85 87 86 86 84 83 82 83 84 84 83 84 82 81 80 79 79 81 82 82 83 83 79 81 81 79 78 78 77
91 85 89 91 90 88 85 81 78 81 86 84 81 78 81 83 82 84 84 84 84 83 82 83 84 84 83 79 79 78 78 77 78 81 80 78 75 78 79 78 77 76 76 75
86 87 89 89 87 84 84 81 79 78 82 85 81 76 78 82 84 84 84 84 83 82 82 82 82 81 81 78 77 76 76 75 75 77 79 79 80 80 78 78 78 76 74 74
87 89 88 88 84 87 80 83 82 79 78 72 80 64 73 79 78 80 82 83 83 83 83 83 81 80 80 79 79 78 76 74 75 73 74 71 74 72 74 75 74 74 73 72
81 87 87 84 82 86 78 84 83 82 79 76 75 70 72 79 74 76 79 81 82 83 83 82 82 82 82 82 81 80 76 74 73 72 71 72 69 72 74 73 70 71 72 71
87 90 88 86 86 86 86 83 81 82 80 64 72 71 70 75 73 76 79 80 81 84 84 83 84 84 83 83 82 79 76 73 73 73 71 68 66 67 68 68 70 72 73 73
85 84 88 87 84 86 84 79 68 64 65 65 74 71 71 75 76 77 77 79 81 83 83 84 83 83 80 79 78 79 75 72 72 71 70 68 66 67 67 66 69 68 70 70
77 72 82 86 82 80 80 78 70 58 62 69 73 67 71 77 78 79 80 80 81 81 84 82 82 81 80 78 76 76 75 73 72 71 69 68 67 69 70 68 68 69 69 69
77 74 84 83 86 84 78 76 79 70 72 68 73 71 74 77 76 77 78 78 78 79 79 81 82 79 78 76 75 75 73 72 71 71 69 68 68 67 67 66 65 67 66 68
80 73 81 81 85 84 81 82 72 75 59 57 68 68 71 71 74 75 75 76 77 78 80 81 81 77 77 77 77 75 75 72 71 71 70 69 67 67 65 64 63 63 64 67
85 79 77 81 78 77 79 78 76 74 71 63 62 65 78 77 78 75 76 77 77 79 81 82 81 80 78 79 79 75 74 73 72 71 70 68 66 66 65 64 65 66 66 66
82 81 76 75 80 81 80 77 75 69 64 72 69 67 80 80 80 77 76 78 79 80 81 82 81 79 77 77 76 75 73 73 72 71 70 68 66 65 64 64 66 65 64 66
82 76 70 71 76 78 76 77 77 74 73 66 64 67 78 79 77 77 77 77 78 80 79 80 80 77 75 75 74 73 73 72 72 71 72 67 66 65 63 65 66 66 65 65
77 76 73 69 72 78 72 74 77 74 68 69 72 71 73 74 75 76 76 78 80 80 78 78 78 77 76 74 73 72 71 71 71 71 71 67 67 66 66 67 66 64 64 62
82 73 77 76 77 77 76 75 75 73 73 67 71 71 75 77 77 77 77 78 78 78 77 76 75 75 75 73 73 72 71 69 71 69 69 68 69 69 68 67 66 65 62 62
78 73 76 72 75 76 73 74 74 73 73 72 73 72 78 80 81 76 77 77 77 77 76 76 75 73 73 72 72 71 70 69 70 69 69 69 69 69 68 67 67 66 62 61
77 74 72 68 73 74 69 73 74 74 75 73 70 74 77 75 76 76 77 78 77 76 76 75 73 73 72 72 72 70 70 70 68 69 70 69 69 68 67 68 67 64 61 60
75 75 76 73 71 59 73 78 77 73 75 76 76 76 77 78 79 81 82 80 77 77 76 75 75 73 72 73 72 72 71 69 69 69 69 69 68 68 68 67 66 64 62 62
83 78 71 67 67 71 74 74 73 72 72 77 76 76 77 79 79 76 79 80 79 77 77 77 76 74 72 72 72 71 70 70 69 68 68 69 68 67 67 66 65 65 63 62
79 80 75 70 63 59 72 77 80 79 68 77 78 75 76 77 72 73 79 80 78 77 77 76 75 74 73 72 72 71 69 69 68 68 68 69 68 67 65 65 64 65 63 63
73 74 70 69 66 72 78 79 80 64 68 78 80 78 77 75 76 77 80 79 79 78 76 76 75 74 72 73 71 69 69 68 69 69 69 69 68 67 66 65 65 65 64 63
72 69 69 69 64 62 81 77 70 76 79 80 80 79 77 77 78 79 80 78 77 76 76 76 75 74 74 74 72 69 68 69 69 69 69 68 68 68 69 66 66 66 65 62
70 76 73 72 73 76 81 79 82 83 80 81 80 81 80 78 78 79 79 77 77 77 76 78 77 73 74 74 73 69 68 70 69 68 68 68 68 69 68 67 66 69 68 66
74 75 75 70 78 78 79 81 82 84 83 83 83 81 81 79 80 79 79 77 77 77 76 77 75 73 72 73 73 73 72 71 70 68 68 68 68 65 68 71 71 70 69 69
79 75 74 74 78 78 80 83 84 83 84 83 83 82 82 82 80 81 78 77 77 77 77 76 75 74 73 73 73 74 73 71 69 69 69 68 72 69 69 70 70 69 69 62
80 76 75 75 81 80 82 84 85 82 81 83 82 81 83 83 81 81 79 78 77 77 77 75 74 73 74 74 73 73 73 71 68 67 71 70 70 71 71 70 69 48 44 41
MSLP
1007.21 1005.93 1005.63 1006.22 1006.24 1006.50 1006.84 1007.30 1008.38 1009.48 1010.33 1010.30 1010.99 1011.84 1012.67 1012.95 1012.94 1013.17 1013.96 1014.82 1015.56 1016.59 1017.51 1017.97 1018.40 1018.64 1018.46 1018.82 1018.90 1018.92 1018.70 1018.50 1018.04 1017.41 1016.88 1016.30 1015.89 1016.43 1016.45 1016.58 1016.85 1016.88 1016.78 1016.82
1006.76 1006.19 1007.05 1007.13 1007.18 1007.02 1007.31 1007.82 1008.95 1010.05 1010.34 1010.68 1011.45 1012.25 1013.10 1013.49 1013.93 1014.26 1014.42 1015.19 1015.85 1016.71 1017.57 1018.00 1018.20 1018.47 1018.85 1019.22 1019.30 1019.25 1019.13 1019.05 1018.66 1018.01 1017.70 1017.37 1017.46 1017.06 1017.08 1017.03 1017.16 1017.52 1017.33 1017.21
1006.04 1006.99 1007.67 1007.51 1007.46 1007.24 1007.78 1008.04 1009.16 1009.79 1010.78 1011.08 1011.44 1012.26 1013.18 1014.03 1014.50 1015.11 1015.54 1015.91 1016.60 1017.13 1017.50 1017.92 1018.36 1018.82 1019.14 1019.45 1019.58 1019.75 1019.76 1019.67 1019.55 1018.95 1018.44 1017.89 1017.43 1017.02 1017.14 1017.11 1017.15 1017.45 1017.64 1017.54
1007.03 1007.62 1007.61 1007.29 1007.61 1007.72 1007.47 1009.21 1009.42 1010.31 1010.18 1010.15 1011.41 1011.72 1013.30 1013.94 1014.87 1015.44 1015.83 1016.29 1016.72 1017.23 1017.70 1018.22 1018.64 1019.15 1019.39 1019.57 1019.96 1020.16 1020.33 1020.30 1020.10 1020.05 1019.34 1019.05 1018.45 1018.15 1018.15 1017.90 1018.02 1017.90 1017.90 1017.85
1007.82 1007.48 1007.42 1007.47 1008.53 1008.69 1009.35 1009.48 1009.45 1009.98 1009.99 1010.23 1010.86 1011.04 1012.88 1013.85 1014.94 1015.73 1016.34 1016.84 1017.29 1017.54 1018.05 1018.50 1018.86 1019.33 1019.58 1019.68 1019.87 1020.22 1020.74 1020.84 1020.80 1020.64 1020.47 1019.92 1019.65 1019.19 1018.77 1018.61 1018.32 1017.89 1017.69 1017.88
1007.83 1008.61 1008.63 1008.86 1009.34 1009.42 1009.73 1009.60 1010.02 1010.00 1009.59 1010.07 1010.89 1011.63 1012.43 1013.41 1015.16 1015.94 1016.54 1017.14 1017.60 1017.74 1018.29 1018.73 1018.97 1019.36 1019.63 1019.95 1020.09 1020.59 1020.93 1021.14 1021.12 1021.01 1020.90 1020.74 1020.46 1019.99 1019.49 1019.27 1018.51 1018.16 1017.80 1017.69
1007.95 1008.54 1009.22 1009.54 1009.08 1009.69 1009.72 1009.51 1009.02 1009.27 1009.56 1009.52 1011.44 1011.91 1013.15 1014.72 1015.76 1016.28 1016.69 1017.29 1017.74 1018.03 1018.35 1018.65 1019.14 1019.37 1019.89 1020.35 1020.55 1020.69 1021.14 1021.27 1021.42 1021.36 1021.30 1021.25 1021.12 1020.56 1020.07 1019.90 1019.27 1018.90 1018.29 1018.12
1007.42 1008.57 1009.37 1009.95 1009.94 1009.64 1009.73 1009.86 1009.33 1009.38 1009.23 1009.41 1011.66 1011.64 1013.69 1015.24 1016.22 1016.82 1017.28 1017.79 1018.02 1018.35 1018.70 1019.10 1019.62 1019.93 1020.21 1020.74 1021.09 1021.23 1021.35 1021.56 1021.82 1021.83 1021.79 1021.73 1021.61 1021.06 1020.57 1020.47 1020.20 1019.55 1019.15 1018.65
1007.99 1008.99 1010.36 1010.65 1010.49 1010.63 1010.05 1009.97 1011.03 1010.64 1010.78 1010.31 1010.76 1012.82 1014.32 1015.30 1016.12 1016.70 1017.30 1017.94 1018.35 1018.88 1019.24 1019.43 1019.79 1020.41 1020.74 1021.06 1021.53 1021.67 1021.76 1021.94 1022.11 1022.01 1021.97 1021.97 1021.90 1021.63 1021.30 1020.96 1020.65 1020.03 1019.69 1019.10
1008.83 1009.24 1010.27 1010.88 1010.95 1011.07 1010.81 1011.33 1010.91 1010.44 1010.18 1010.29 1010.50 1011.71 1012.08 1014.62 1015.45 1016.60 1017.32 1017.92 1018.57 1019.14 1019.18 1019.53 1019.94 1020.64 1020.97 1021.23 1021.24 1021.82 1021.93 1022.05 1022.16 1022.22 1022.20 1022.11 1021.99 1021.76 1021.58 1021.18 1020.79 1020.40 1019.91 1019.29
1009.28 1009.54 1010.41 1010.91 1010.78 1010.88 1010.93 1010.67 1011.41 1011.57 1011.38 1011.00 1010.69 1011.62 1012.90 1013.76 1014.94 1016.36 1017.22 1018.01 1018.60 1019.01 1019.08 1019.46 1019.97 1020.50 1020.98 1021.13 1021.33 1021.92 1022.05 1021.93 1022.15 1022.41 1022.35 1022.28 1022.13 1021.90 1021.65 1021.30 1020.84 1020.32 1019.94 1019.54
1010.21 1009.96 1009.93 1010.70 1011.79 1012.05 1011.79 1011.64 1011.77 1011.39 1011.46 1011.73 1012.02 1012.45 1013.56 1014.22 1015.55 1016.71 1017.48 1018.16 1018.60 1019.09 1019.29 1019.61 1020.04 1020.67 1021.07 1021.37 1021.69 1021.86 1022.23 1022.15 1022.44 1022.45 1022.21 1022.29 1022.28 1022.04 1021.82 1021.49 1020.91 1020.49 1020.18 1019.56
1010.49 1010.52 1010.35 1010.86 1011.71 1012.11 1011.77 1012.22 1012.43 1012.47 1012.33 1011.86 1012.13 1012.40 1014.15 1015.11 1016.15 1016.95 1017.53 1018.35 1018.82 1019.15 1019.49 1019.82 1020.19 1020.83 1021.32 1021.70 1022.02 1022.26 1022.40 1022.51 1022.63 1022.45 1022.04 1022.33 1022.12 1022.05 1021.84 1021.38 1021.10 1020.73 1020.27 1019.93
1011.05 1010.90 1010.53 1010.45 1010.99 1011.33 1011.68 1012.18 1012.41 1012.58 1012.07 1012.09 1011.70 1012.54 1013.91 1015.15 1015.92 1016.93 1017.71 1018.34 1018.45 1019.01 1019.57 1020.09 1020.53 1021.06 1021.53 1022.03 1022.37 1022.56 1022.78 1022.97 1022.73 1022.52 1022.24 1022.33 1022.11 1021.97 1021.73 1021.44 1021.23 1021.01 1020.79 1020.54
1010.95 1010.78 1011.10 1011.36 1011.58 1011.68 1011.75 1012.02 1012.27 1012.41 1012.61 1012.62 1012.66 1012.83 1013.65 1014.54 1015.72 1016.76 1017.76 1018.16 1018.48 1018.87 1019.57 1020.24 1020.88 1021.41 1021.70 1022.17 1022.44 1022.79 1023.03 1023.27 1022.95 1022.64 1022.35 1022.33 1022.15 1021.93 1021.73 1021.47 1021.28 1021.09 1021.08 1020.85
1011.36 1011.26 1011.36 1011.57 1012.00 1011.89 1011.93 1012.45 1012.65 1012.86 1013.03 1013.08 1013.16 1013.23 1014.47 1014.94 1015.91 1017.09 1017.65 1018.04 1018.38 1018.97 1019.74 1020.34 1021.04 1021.64 1022.02 1022.34 1022.66 1022.88 1023.14 1023.30 1023.13 1022.67 1022.45 1022.44 1022.29 1021.94 1021.76 1021.45 1021.24 1021.07 1021.22 1021.09
1011.01 1011.31 1011.51 1011.13 1012.14 1011.96 1011.87 1012.10 1012.65 1012.98 1013.33 1013.63 1013.18 1014.08 1014.85 1015.49 1016.14 1016.81 1017.30 1017.83 1018.44 1019.18 1019.86 1020.45 1021.21 1021.83 1022.42 1022.64 1022.87 1022.92 1023.11 1023.31 1023.19 1022.75 1022.48 1022.39 1022.33 1022.04 1021.82 1021.53 1021.38 1021.36 1021.33 1021.36
1011.05 1011.26 1011.43 1011.38 1012.21 1011.80 1012.37 1012.95 1013.17 1013.26 1013.60 1013.98 1014.19 1014.57 1014.99 1015.49 1016.25 1016.70 1017.12 1017.70 1018.57 1019.33 1019.89 1020.55 1021.19 1021.92 1022.55 1022.76 1022.96 1022.98 1023.08 1023.20 1022.96 1022.72 1022.51 1022.55 1022.45 1022.20 1021.97 1021.68 1021.57 1021.53 1021.40 1021.31
1010.94 1011.12 1011.64 1011.72 1011.58 1011.87 1012.21 1013.04 1013.23 1013.18 1013.30 1014.27 1014.39 1014.96 1015.35 1015.92 1016.56 1017.25 1017.88 1018.29 1018.88 1019.59 1020.19 1020.76 1021.42 1022.14 1022.66 1022.84 1023.01 1022.98 1023.03 1022.97 1022.86 1022.89 1022.75 1022.73 1022.69 1022.40 1022.23 1021.94 1021.80 1021.67 1021.43 1021.30
1011.55 1011.51 1011.50 1011.87 1011.68 1011.53 1012.13 1013.09 1013.63 1013.77 1013.40 1014.39 1014.79 1015.18 1015.58 1016.10 1015.64 1016.65 1017.91 1018.61 1019.36 1019.97 1020.41 1020.93 1021.59 1022.21 1022.52 1022.83 1023.00 1022.94 1022.99 1022.90 1023.05 1023.12 1023.11 1022.99 1022.98 1022.75 1022.56 1022.46 1022.14 1021.92 1021.77 1021.45
1011.50 1011.63 1011.42 1011.45 1011.72 1011.69 1012.56 1013.32 1013.93 1013.64 1014.18 1014.53 1014.88 1015.29 1015.82 1015.99 1016.55 1017.32 1018.00 1018.78 1019.49 1020.06 1020.65 1021.23 1021.67 1021.94 1022.48 1022.74 1022.90 1022.94 1022.98 1023.12 1023.33 1023.35 1023.25 1023.12 1023.07 1022.93 1022.81 1022.61 1022.42 1022.09 1021.83 1021.74
1011.38 1011.57 1011.67 1012.16 1012.06 1011.94 1012.80 1013.61 1013.56 1013.60 1014.19 1014.63 1015.07 1015.53 1015.98 1016.63 1017.26 1017.64 1018.01 1018.81 1019.48 1020.03 1020.68 1021.11 1021.54 1021.90 1022.40 1022.66 1022.71 1022.80 1023.03 1023.33 1023.40 1023.39 1023.20 1023.12 1023.05 1022.91 1022.67 1022.57 1022.32 1022.18 1021.94 1021.80
1011.91 1012.02 1011.98 1012.12 1011.79 1012.61 1012.74 1012.99 1013.43 1013.73 1014.21 1014.69 1015.08 1015.62 1016.14 1016.79 1017.19 1017.59 1018.17 1018.95 1019.49 1019.85 1020.34 1020.87 1021.32 1021.80 1022.26 1022.56 1022.81 1022.76 1023.18 1023.28 1023.35 1023.27 1023.19 1023.12 1022.98 1022.80 1022.64 1022.41 1022.30 1021.60 1021.69 1021.55
1012.28 1012.77 1012.28 1012.55 1012.11 1012.49 1012.89 1013.29 1013.56 1013.86 1014.06 1014.70 1015.15 1015.67 1016.14 1016.62 1017.08 1017.58 1018.29 1018.97 1019.44 1019.87 1020.25 1020.69 1021.22 1021.55 1021.93 1022.38 1022.73 1022.91 1023.15 1023.33 1023.29 1023.18 1023.10 1023.00 1022.82 1022.90 1022.52 1022.03 1021.83 1021.66 1021.64 1021.61
1012.00 1012.74 1012.16 1012.07 1012.24 1012.65 1012.71 1012.84 1013.22 1013.91 1014.24 1014.67 1015.23 1015.63 1015.91 1016.43 1017.02 1017.50 1018.30 1019.00 1019.38 1019.77 1020.22 1020.62 1020.90 1021.33 1021.69 1022.14 1022.45 1022.78 1023.05 1023.30 1023.16 1023.13 1023.00 1022.81 1022.28 1022.38 1022.07 1022.04 1022.27 1022.29 1022.58 1023.11
1012.16 1011.84 1011.89 1011.38 1011.83 1012.13 1012.03 1012.41 1013.03 1013.57 1014.08 1014.53 1015.03 1015.56 1015.99 1016.43 1016.93 1017.62 1018.25 1018.92 1019.41 1019.73 1020.10 1020.54 1020.86 1021.23 1021.46 1021.83 1022.11 1022.50 1022.90 1023.11 1023.13 1022.99 1022.53 1022.71 1022.23 1021.87 1021.62 1021.68 1021.90 1022.86 1023.14 1023.39
Wind_Speed
5 8 9 7 7 6 3 4 11 10 4 13 14 16 12 12 12 13 13 12 12 12 12 11 10 6 8 11 10 11 11 11 9 8 9 8 9 7 6 5 9 10 9 9
9 8 6 6 6 6 5 7 9 7 10 12 14 17 14 14 14 12 13 13 13 13 12 11 11 12 13 13 13 14 15 15 12 9 9 7 6 5 7 7 7 10 10 9
6 9 5 9 8 7 4 7 10 12 8 12 16 15 12 14 14 14 13 12 12 12 11 12 13 14 14 14 16 15 15 15 14 14 10 10 9 6 7 8 8 8 10 10
6 3 10 10 8 10 6 4 5 14 16 10 7 7 9 12 13 12 12 12 11 11 12 12 13 13 14 14 14 15 15 15 14 16 13 13 12 10 9 10 10 9 10 10
5 12 7 7 6 6 8 2 10 14 7 8 6 3 11 8 9 10 11 12 11 12 13 13 13 12 13 12 12 13 13 14 14 14 14 12 13 10 10 10 11 9 7 8
10 5 7 7 5 4 4 7 8 9 8 9 4 7 8 7 6 8 9 11 9 11 11 10 10 10 13 13 12 12 13 13 13 14 15 16 16 14 12 12 10 10 9 8
12 8 7 4 5 8 6 6 7 6 7 6 5 7 10 9 6 5 7 8 8 7 8 10 12 12 12 12 12 12 13 12 14 15 15 16 15 13 11 12 10 11 10 9
9 12 3 3 5 7 3 6 7 10 6 6 5 1 10 7 6 6 7 6 6 6 9 10 11 11 11 10 11 11 11 12 13 13 14 13 13 9 9 10 10 9 9 10
5 7 7 7 7 4 4 3 5 7 4 9 6 7 8 9 9 6 6 6 6 6 6 9 11 10 9 9 9 9 10 11 12 13 12 11 10 11 10 10 10 9 9 10
3 6 2 5 3 7 5 3 5 5 4 5 7 5 9 12 12 8 6 5 5 3 5 9 9 8 9 8 6 8 9 10 11 13 12 10 10 10 10 8 9 9 9 10
6 4 8 5 2 7 3 4 1 5 5 7 5 8 6 8 11 8 5 4 5 1 7 9 9 9 9 9 9 8 10 11 12 12 10 10 10 10 9 9 9 9 10 11
3 2 2 7 5 3 3 4 4 7 4 3 5 5 5 7 10 6 5 6 5 3 7 9 10 10 9 9 9 9 9 11 11 10 8 10 9 9 9 10 10 11 10 10
7 3 5 9 8 5 4 3 1 1 4 3 9 7 7 9 9 7 6 7 6 1 7 9 9 9 9 9 8 9 10 11 10 10 10 10 10 10 8 10 11 12 11 12
2 3 4 7 6 3 4 4 2 5 7 7 2 3 11 11 9 8 7 7 3 3 6 9 9 9 9 8 8 8 9 10 10 9 10 10 10 10 9 10 10 10 11 11
1 4 2 3 3 2 1 2 3 7 6 6 8 4 7 9 9 9 8 6 3 4 6 8 8 8 9 8 8 8 9 8 10 9 9 10 9 9 10 10 10 9 9 10
1 4 5 4 3 4 4 1 1 1 1 2 4 3 3 7 10 9 9 6 2 5 6 6 6 7 8 9 8 7 8 7 9 9 9 9 10 9 10 10 10 11 10 10
4 7 6 3 3 5 8 2 0 2 0 4 7 8 5 9 10 9 7 4 4 5 5 6 6 7 7 7 7 7 7 7 8 9 8 9 9 9 9 10 11 12 9 9
10 6 3 3 5 9 8 3 2 3 0 1 2 2 3 8 8 7 4 6 4 4 4 5 5 6 6 7 8 7 7 6 7 8 8 9 10 9 9 9 11 10 8 9
6 4 4 4 6 3 7 4 4 4 3 1 1 4 6 9 8 7 6 4 5 5 5 5 6 6 4 6 7 7 6 6 8 9 9 9 9 9 9 9 10 9 9 8
6 2 6 4 5 4 9 5 2 2 5 4 1 5 8 9 10 12 8 6 6 5 5 5 5 5 3 6 6 7 6 8 9 8 8 8 8 8 9 9 8 8 7 6
5 4 6 5 6 2 6 8 4 7 5 6 2 4 6 5 9 11 9 6 6 4 4 5 4 4 4 4 5 7 6 8 7 6 6 7 6 6 7 7 6 7 6 6
6 5 4 2 5 7 12 9 5 8 8 8 5 4 5 8 9 9 8 8 6 5 6 3 4 4 3 2 4 6 6 5 6 5 6 6 6 5 6 6 6 6 6 3
6 3 3 5 5 3 14 3 6 9 9 8 7 7 5 9 9 8 7 7 5 4 5 3 2 4 3 2 3 5 4 4 5 5 5 5 5 6 5 5 5 4 2 3
4 3 4 3 7 6 11 6 5 8 8 8 8 10 7 9 9 7 7 6 5 5 5 4 3 3 4 3 2 2 2 2 3 4 4 4 5 5 5 6 4 5 4 4
6 5 5 6 4 3 8 13 8 10 8 10 11 10 8 8 9 8 7 7 5 5 5 4 3 3 4 4 4 1 1 2 3 3 4 4 2 3 4 3 4 6 4 4
6 2 6 3 5 5 4 8 13 13 13 13 14 12 10 9 9 7 7 6 5 6 6 5 5 4 5 5 5 3 2 3 4 5 4 3 6 5 4 5 3 6 4 5
Wind_Direction
185 250 43 60 49 77 75 89 101 113 98 87 92 85 74 59 48 60 74 85 81 82 79 77 77 72 41 36 33 23 18 12 4 357 346 344 354 358 22 22 26 13 9 20
198 89 79 120 133 122 99 115 107 100 109 115 102 83 73 60 59 54 69 71 74 81 76 66 56 49 44 41 39 39 34 31 19 11 7 354 19 8 358 14 20 25 13 17
355 66 136 160 170 145 62 351 171 135 150 123 126 98 88 85 79 75 70 77 74 59 54 51 51 42 47 50 43 41 36 38 30 12 18 7 6 10 4 0 13 9 5 9
55 120 161 188 90 331 82 10 177 152 181 166 239 130 93 101 91 70 68 60 58 55 57 56 56 54 50 44 42 41 36 30 34 19 21 17 1 360 356 352 10 342 5 7
86 142 171 90 41 353 36 208 181 186 235 211 169 264 118 136 100 75 65 63 61 61 54 59 55 47 47 40 41 36 39 36 32 29 20 7 8 354 351 351 346 359 16 14
108 108 34 61 73 57 131 123 153 207 213 231 103 284 157 127 100 101 78 69 60 66 68 58 53 43 31 31 27 39 37 33 24 20 17 12 6 359 358 357 357 357 7 7
138 100 102 23 148 148 232 224 212 196 226 38 111 253 65 119 125 85 72 72 70 67 58 38 30 28 32 27 25 21 25 25 17 13 11 8 4 2 2 358 6 354 358 1
166 157 11 15 7 353 26 324 338 318 336 80 150 205 111 118 130 119 86 83 83 59 41 28 30 23 24 24 24 17 19 17 11 12 6 8 6 3 6 9 355 2 353 356
181 104 114 55 41 307 79 312 16 291 179 261 82 116 148 155 153 149 105 103 93 62 32 23 29 26 15 22 24 12 12 13 11 5 6 12 13 8 4 359 347 360 355 339
101 130 176 111 236 79 350 68 261 206 294 307 124 255 84 177 175 155 147 126 106 63 27 27 28 29 16 14 26 16 4 13 12 5 10 12 7 6 1 353 360 353 345 348
155 274 137 201 7 352 173 182 3 298 322 324 300 87 65 164 164 164 140 120 132 105 22 29 29 26 17 10 17 20 3 7 14 8 8 16 11 8 5 4 1 357 355 349
82 19 152 59 77 5 5 23 333 322 97 70 286 80 107 124 123 136 130 139 121 41 26 28 30 24 21 17 11 29 5 11 14 1 9 21 10 9 14 6 5 3 360 355
174 135 184 173 163 163 262 92 55 63 271 133 310 89 140 138 142 147 144 134 161 26 34 33 24 27 29 17 22 15 15 14 9 4 11 23 15 17 9 11 10 14 3 11
101 116 311 353 39 44 173 196 227 300 289 351 358 17 156 170 172 153 150 171 136 49 41 39 22 31 39 30 26 19 21 12 11 11 23 17 15 14 13 11 12 11 14 11
256 140 168 100 123 197 215 281 263 289 347 293 17 329 32 163 167 152 156 172 155 51 34 38 34 28 32 29 28 29 24 20 12 14 23 14 15 13 11 9 11 21 17 25
27 135 168 150 162 223 226 172 344 21 19 265 323 112 27 113 132 143 168 173 119 54 43 40 46 40 35 27 16 29 24 19 9 14 18 17 8 15 8 9 13 21 22 21
148 145 206 147 198 224 237 98 280 134 240 333 325 46 134 149 155 159 150 148 75 61 42 41 50 53 38 30 16 19 24 17 6 7 16 12 12 4 12 14 16 23 30 23
141 145 202 99 209 248 76 79 241 284 332 187 227 46 156 153 145 151 135 110 86 72 48 62 67 72 46 25 25 14 20 17 3 11 13 10 11 7 10 14 14 20 19 34
142 166 127 241 230 2 173 175 207 247 112 21 5 145 139 138 150 144 108 95 86 88 69 70 76 80 58 27 20 14 25 10 12 16 11 9 13 12 15 8 11 6 10 37
102 108 257 181 276 266 72 128 160 269 208 118 253 165 152 168 224 111 133 134 116 100 91 108 107 107 59 39 18 20 18 20 17 18 12 12 17 18 21 7 8 5 355 27
166 207 241 216 268 282 115 134 154 239 76 127 163 186 172 222 61 112 122 120 122 108 123 121 139 106 73 45 18 30 13 27 14 8 5 11 18 5 16 10 2 6 357 20
207 212 202 238 258 247 142 140 234 103 130 152 151 146 176 124 131 138 129 137 141 142 138 166 151 138 127 66 13 28 34 16 16 3 357 4 2 352 6 354 3 356 359 25
222 297 323 257 16 103 170 39 137 159 154 164 158 144 148 170 163 152 141 148 147 153 144 152 161 160 161 147 6 9 38 16 11 356 3 5 350 357 357 342 358 327 341 14
187 184 242 263 174 178 195 168 171 179 159 157 156 160 159 182 171 162 155 153 161 157 167 156 171 198 193 196 221 360 24 19 350 0 353 352 339 334 7 321 348 337 360 331
28 170 200 247 226 201 205 209 184 177 160 160 163 161 157 174 184 174 171 171 170 167 166 173 179 208 227 194 229 236 288 264 292 321 342 313 319 3 328 355 352 338 33 360
184 160 233 286 65 269 53 192 193 184 177 172 169 167 161 166 178 178 179 172 184 182 181 181 192 216 236 217 226 223 231 252 280 276 271 20 310 327 341 326 332 204 218 201